Total_Precipitation_Accumulation
1.30 1.38 1.37 1.42 1.40 1.42 1.44 1.43 1.40 1.38 1.33 1.33 1.33 1.32 1.31 1.37 1.44 1.50 1.42 1.43 1.39 1.42 1.42 1.46 1.46 1.56 1.61 1.59 1.67 1.69 1.75 1.87 1.72 1.41 1.44 1.55 1.53 1.37 1.34 1.30 1.27 1.27 1.23
1.07 1.09 1.16 1.23 1.25 1.23 1.23 1.31 1.38 1.33 1.28 1.33 1.37 1.31 1.21 1.28 1.41 1.42 1.37 1.41 1.45 1.42 1.48 1.62 1.56 1.60 1.68 1.73 1.85 1.79 1.84 2.06 2.03 1.77 1.72 1.79 1.66 1.55 1.48 1.39 1.21 1.16 1.17
0.91 0.94 1.00 1.05 1.08 1.10 1.14 1.24 1.33 1.36 1.36 1.32 1.29 1.21 1.20 1.23 1.29 1.33 1.42 1.54 1.59 1.62 1.69 1.77 1.80 1.94 1.85 1.86 1.91 1.88 1.93 2.14 2.32 2.14 1.99 2.07 2.01 1.77 1.65 1.44 1.29 1.30 1.14
0.95 1.04 1.14 1.18 1.20 1.22 1.24 1.32 1.41 1.46 1.43 1.44 1.44 1.46 1.47 1.41 1.40 1.44 1.55 1.63 1.66 1.73 1.86 1.88 1.90 1.94 1.98 2.07 2.07 2.15 2.28 2.44 2.58 2.46 2.35 2.41 2.39 2.20 1.97 1.64 1.53 1.45 1.33
1.14 1.24 1.40 1.55 1.57 1.46 1.47 1.58 1.68 1.73 1.68 1.79 1.78 1.75 1.77 1.72 1.56 1.65 1.72 1.70 1.81 1.75 1.82 1.86 1.82 1.89 1.93 2.03 2.01 2.17 2.42 2.61 2.73 2.75 2.72 2.86 2.76 2.57 2.25 1.92 1.83 1.74 1.61
0.99 1.12 1.33 1.51 1.57 1.57 1.63 1.75 1.80 1.79 1.89 1.95 1.89 1.88 1.87 1.66 1.76 1.83 1.80 1.86 1.90 1.86 1.88 1.89 1.85 1.81 1.75 1.78 1.84 1.94 2.10 2.30 2.55 2.75 2.82 2.90 2.92 2.78 2.58 2.32 2.00 1.75 1.60
1.14 1.30 1.41 1.51 1.59 1.63 1.64 1.73 1.81 1.82 1.81 1.88 1.90 1.91 1.81 1.77 1.77 1.63 1.63 1.63 1.74 1.81 1.84 1.85 1.68 1.57 1.59 1.52 1.63 1.67 1.66 1.75 1.89 2.16 2.37 2.43 2.63 2.74 2.63 2.29 1.98 1.73 1.54
1.12 1.24 1.33 1.49 1.61 1.70 1.85 1.93 2.01 2.08 2.10 2.10 2.02 1.97 1.96 1.85 1.73 1.57 1.58 1.46 1.51 1.56 1.60 1.64 1.65 1.56 1.53 1.59 1.58 1.47 1.35 1.35 1.45 1.48 1.60 1.85 2.12 2.42 2.50 2.37 2.29 2.00 1.71
1.24 1.41 1.56 1.65 1.78 1.86 1.93 2.07 2.19 2.28 2.24 2.20 2.17 2.19 2.22 2.20 2.09 1.79 1.66 1.53 1.58 1.60 1.60 1.60 1.61 1.48 1.53 1.47 1.42 1.40 1.31 1.26 1.28 1.33 1.39 1.58 1.87 2.09 2.29 2.29 2.21 2.08 1.82
1.48 1.57 1.68 1.84 1.92 1.93 1.96 2.04 2.08 2.13 2.14 2.13 2.07 2.13 2.11 2.13 2.19 1.87 1.64 1.47 1.53 1.55 1.61 1.63 1.66 1.51 1.56 1.48 1.44 1.48 1.38 1.29 1.29 1.27 1.30 1.36 1.44 1.71 1.99 2.00 1.95 1.96 1.81
1.57 1.62 1.73 1.82 1.99 2.06 2.07 2.00 1.91 1.92 1.97 2.01 2.05 2.10 2.13 2.10 2.04 1.69 1.53 1.47 1.54 1.57 1.54 1.51 1.56 1.57 1.42 1.32 1.24 1.24 1.29 1.32 1.33 1.27 1.23 1.24 1.29 1.40 1.59 1.69 1.74 1.71 1.63
1.58 1.66 1.76 1.80 1.79 1.79 1.97 2.01 1.96 1.93 1.93 1.95 2.02 1.99 1.95 1.92 1.80 1.49 1.24 1.21 1.31 1.37 1.39 1.39 1.40 1.36 1.19 1.07 0.94 0.91 0.96 0.95 1.02 1.10 1.12 1.09 1.12 1.19 1.33 1.57 1.71 1.70 1.56
1.67 1.81 1.91 1.88 1.84 1.81 1.83 1.89 1.87 1.79 1.67 1.61 1.71 1.78 1.79 1.80 1.71 1.44 1.17 1.07 1.10 1.08 1.17 1.38 1.38 1.25 1.14 1.07 1.01 0.90 0.82 0.76 0.84 0.93 0.91 0.92 0.96 1.05 1.20 1.49 1.73 1.89 1.78
1.85 1.85 1.87 1.88 1.80 1.79 1.89 1.83 1.78 1.76 1.65 1.51 1.59 1.71 1.78 1.80 1.69 1.49 1.33 1.24 1.21 1.16 1.20 1.35 1.41 1.38 1.29 1.20 1.10 0.93 0.77 0.75 0.78 0.84 0.88 0.90 0.98 1.07 1.18 1.28 1.51 1.71 1.78
1.72 1.62 1.63 1.67 1.65 1.63 1.70 1.74 1.62 1.58 1.60 1.54 1.65 1.86 1.84 1.68 1.56 1.41 1.24 1.23 1.24 1.30 1.32 1.42 1.54 1.55 1.51 1.40 1.24 1.08 0.95 0.91 0.87 0.86 0.95 0.97 0.99 1.02 1.04 1.08 1.25 1.41 1.42
1.73 1.65 1.58 1.55 1.57 1.62 1.60 1.59 1.57 1.40 1.39 1.35 1.40 1.50 1.56 1.46 1.34 1.24 1.16 1.13 1.08 1.09 1.12 1.30 1.57 1.63 1.63 1.60 1.48 1.29 1.14 1.05 0.99 0.98 1.00 1.00 1.00 1.04 1.06 1.12 1.19 1.32 1.33
1.74 1.77 1.70 1.52 1.44 1.44 1.44 1.43 1.44 1.36 1.14 1.08 1.09 1.07 1.04 1.03 1.01 1.05 1.06 0.98 0.90 0.81 0.81 1.01 1.31 1.52 1.60 1.62 1.54 1.36 1.18 1.14 1.15 1.10 1.07 1.04 1.04 1.06 1.13 1.17 1.21 1.29 1.34
1.47 1.54 1.51 1.44 1.39 1.31 1.27 1.22 1.19 1.27 1.26 1.12 1.03 0.97 0.93 0.89 0.91 1.05 1.11 0.90 0.74 0.67 0.66 0.83 1.08 1.34 1.45 1.51 1.49 1.43 1.32 1.27 1.26 1.21 1.17 1.14 1.12 1.13 1.12 1.15 1.19 1.23 1.27
1.33 1.36 1.34 1.36 1.41 1.40 1.41 1.34 1.24 1.24 1.33 1.36 1.26 1.04 0.98 0.94 0.96 1.16 1.22 0.90 0.78 0.83 0.83 0.87 1.02 1.24 1.41 1.52 1.55 1.52 1.45 1.40 1.37 1.36 1.31 1.28 1.25 1.28 1.23 1.16 1.19 1.28 1.31
1.30 1.41 1.36 1.28 1.30 1.39 1.43 1.37 1.37 1.47 1.50 1.59 1.58 1.28 1.08 1.01 0.98 1.22 1.32 1.14 1.08 1.08 1.06 1.05 1.10 1.24 1.40 1.54 1.57 1.52 1.52 1.49 1.49 1.46 1.41 1.36 1.31 1.32 1.32 1.29 1.31 1.34 1.29
1.27 1.33 1.37 1.30 1.29 1.33 1.36 1.36 1.34 1.43 1.54 1.60 1.57 1.35 1.20 1.09 1.20 1.43 1.58 1.44 1.30 1.28 1.25 1.19 1.20 1.28 1.37 1.47 1.48 1.44 1.44 1.50 1.48 1.45 1.42 1.40 1.35 1.31 1.30 1.33 1.32 1.35 1.34
1.22 1.27 1.28 1.27 1.30 1.29 1.29 1.34 1.37 1.47 1.57 1.63 1.53 1.38 1.35 1.27 1.34 1.49 1.54 1.46 1.37 1.32 1.28 1.26 1.29 1.36 1.39 1.41 1.41 1.41 1.41 1.43 1.42 1.43 1.46 1.47 1.45 1.41 1.41 1.38 1.34 1.36 1.38
1.06 1.12 1.17 1.19 1.18 1.16 1.16 1.17 1.20 1.29 1.42 1.49 1.42 1.37 1.37 1.42 1.40 1.44 1.49 1.46 1.40 1.36 1.29 1.27 1.28 1.29 1.29 1.29 1.25 1.28 1.31 1.28 1.26 1.31 1.40 1.46 1.48 1.46 1.43 1.38 1.35 1.37 1.40
0.77 0.79 0.80 0.84 0.86 0.91 0.95 0.98 0.98 1.02 1.15 1.23 1.18 1.22 1.25 1.28 1.27 1.29 1.34 1.34 1.34 1.34 1.31 1.25 1.21 1.19 1.15 1.14 1.13 1.14 1.12 1.14 1.14 1.18 1.24 1.34 1.39 1.44 1.44 1.39 1.40 1.41 1.43
0.72 0.72 0.71 0.73 0.74 0.76 0.80 0.85 0.93 1.00 1.05 1.07 1.11 1.13 1.16 1.15 1.17 1.21 1.19 1.17 1.16 1.14 1.09 1.07 1.08 1.10 1.12 1.07 1.00 0.96 0.98 0.97 0.97 1.03 1.08 1.20 1.27 1.34 1.37 1.37 1.40 1.45 1.45
0.68 0.74 0.75 0.78 0.79 0.80 0.83 0.88 0.93 0.92 0.92 0.94 0.97 1.03 1.11 1.10 1.08 1.07 1.03 1.01 1.03 1.01 0.97 0.97 0.96 0.99 1.00 0.96 0.92 0.92 0.89 0.81 0.82 0.91 0.93 1.02 1.15 1.23 1.28 1.31 1.29 1.34 1.37